Theta_e
333 329 328 326 325 325 326 325 325 326 327 327 327 326 326 326 326 325 324 323 320 321 320 319 321 321 321 320 321 320 320 321 321 318 316 314 308 307 312 311 310 311 313 313 312 310 306 308 304 306 307 308 308 308 307 307 306 307 308 308 306 306 307
333 328 325 324 323 325 325 324 323 323 326 327 328 327 325 324 324 323 322 321 320 319 318 319 319 319 319 319 317 316 316 315 316 315 314 312 312 309 310 311 312 310 309 311 311 311 308 306 301 303 306 309 308 306 308 308 307 308 307 307 306 306 308
327 325 324 324 324 324 323 323 323 324 326 326 326 325 324 324 323 323 320 319 320 318 317 318 317 316 316 316 315 314 314 313 314 313 311 311 312 313 313 313 311 310 310 308 308 308 308 307 301 301 302 303 303 305 307 307 307 307 308 307 308 305 306
327 325 323 324 324 324 322 323 323 323 326 325 324 324 323 323 323 322 320 319 319 319 317 315 315 313 312 312 312 313 313 312 311 312 312 312 311 311 311 309 308 308 306 305 306 306 306 306 304 302 303 302 301 303 305 306 307 308 307 307 306 306 307
328 326 325 323 323 324 323 322 322 323 324 324 324 322 323 322 322 320 320 319 318 318 316 316 315 313 312 311 310 310 311 312 312 311 311 310 311 310 310 309 308 308 308 307 307 307 305 304 305 304 302 304 304 304 303 309 308 306 304 306 305 305 305
330 329 327 325 325 324 323 321 321 321 322 323 322 322 321 321 321 319 319 317 317 317 316 314 313 312 311 310 310 310 310 310 310 311 310 311 311 308 307 308 308 307 306 307 308 307 307 307 306 303 303 306 303 303 304 304 303 306 304 304 304 305 304
332 330 327 325 327 326 323 322 322 322 324 323 322 321 320 319 320 320 319 318 316 315 314 313 312 311 310 307 309 308 309 309 310 310 310 310 310 310 309 307 307 306 306 307 307 306 306 305 303 303 303 304 306 302 303 302 303 300 302 303 304 304 304
330 328 326 327 327 324 322 323 323 323 322 322 320 320 320 319 319 318 317 316 315 315 314 313 311 311 310 308 309 309 309 309 309 308 308 309 308 308 309 307 307 306 306 306 306 306 306 305 304 303 302 300 302 302 301 302 302 301 300 302 303 303 303
328 327 325 325 325 324 322 322 322 322 321 321 321 320 319 319 318 317 316 315 315 314 313 311 310 309 309 308 308 308 307 308 307 307 307 308 308 308 308 307 306 305 306 306 306 306 305 306 305 304 303 302 299 297 300 300 300 300 302 300 302 303 303
327 325 324 323 322 322 321 320 320 320 321 320 319 320 319 319 318 317 315 315 314 313 312 311 310 309 309 308 308 308 308 308 308 307 307 307 308 307 307 307 306 305 305 307 306 306 306 306 305 304 303 301 300 297 296 296 298 299 300 301 299 301 303
326 324 323 323 321 320 319 319 320 320 320 319 319 319 319 318 317 316 315 314 314 313 312 310 309 309 309 307 308 307 307 308 307 307 307 307 307 307 306 306 305 304 306 306 305 306 306 306 304 304 303 303 302 298 298 296 298 301 299 302 302 300 302
324 322 321 321 319 318 318 318 319 320 319 318 318 318 317 316 316 315 315 313 313 312 311 310 310 309 309 307 307 307 307 308 306 306 307 307 306 306 305 304 305 304 306 306 306 306 306 305 304 303 302 304 304 303 301 299 296 301 303 300 302 303 302
322 321 320 317 316 316 316 318 318 319 317 317 317 317 316 315 315 314 314 313 312 311 310 310 310 309 308 308 308 307 307 306 305 305 306 306 305 305 305 304 304 305 305 305 304 305 304 305 305 303 303 303 303 303 302 300 298 298 302 301 301 302 302
321 319 318 317 316 316 318 319 318 318 316 316 316 315 315 314 314 314 313 312 311 310 310 310 310 309 308 307 307 307 306 305 304 305 305 305 304 304 304 303 303 304 305 304 304 304 304 304 305 304 304 303 302 303 302 300 298 298 301 303 302 302 303
319 316 316 317 316 316 317 318 319 317 316 315 315 314 314 314 314 313 312 311 310 310 309 309 309 309 307 306 307 307 306 305 305 305 305 304 304 304 304 303 303 304 305 304 304 303 303 304 304 302 303 303 302 302 303 300 299 298 298 301 301 302 302
316 316 315 316 316 316 318 318 318 316 315 314 315 314 314 314 313 313 311 311 310 309 309 309 309 308 307 306 306 307 306 306 305 305 304 304 303 304 304 304 304 304 305 305 305 305 305 304 304 304 304 303 303 302 302 302 300 298 298 299 301 301 301
315 315 315 316 316 317 318 317 317 316 314 314 313 314 314 313 312 312 311 310 310 309 309 309 308 307 306 306 306 305 305 306 306 305 304 304 304 304 303 303 304 305 305 304 304 304 304 304 304 303 303 303 303 302 303 303 303 300 299 298 301 299 301
315 316 316 316 317 318 318 317 317 314 314 313 314 313 313 312 312 311 311 310 309 309 309 308 307 306 306 307 306 306 306 306 306 305 305 305 304 304 304 303 303 304 305 304 304 303 303 304 303 304 302 302 302 302 303 303 302 302 300 299 299 301 302
315 316 317 317 318 317 317 317 315 314 312 312 313 312 312 311 311 310 310 310 309 309 309 309 307 307 306 307 307 307 307 306 306 305 305 305 305 305 305 304 304 305 304 304 303 303 303 303 303 303 302 302 301 302 302 302 301 301 300 299 299 299 301
316 317 317 317 317 316 316 316 314 312 312 312 311 311 311 311 311 310 310 310 309 309 309 308 308 308 307 307 307 306 306 306 306 306 306 305 305 305 305 304 305 305 303 303 302 302 301 301 302 302 302 301 301 301 300 300 299 299 299 298 299 300 299
318 317 317 317 316 315 314 314 313 312 312 311 310 310 310 310 311 311 311 310 310 310 309 308 308 308 307 308 307 307 307 306 306 306 306 306 306 305 305 305 305 303 302 302 302 302 301 299 301 301 300 300 300 299 299 298 298 298 297 298 297 296 298
318 318 316 315 314 313 313 313 312 311 311 310 310 309 310 310 310 310 310 310 309 310 309 309 309 308 308 307 308 307 307 306 306 306 306 305 306 305 305 305 304 303 301 300 298 298 298 297 301 298 299 299 298 298 298 298 297 296 296 296 296 298 297
316 315 315 314 312 312 311 311 310 310 310 310 310 309 309 310 309 309 309 309 309 310 310 310 308 303 303 307 308 308 307 307 306 306 306 305 305 306 305 306 303 299 300 300 300 297 295 295 296 299 299 298 297 297 297 296 295 295 296 295 295 296 295
314 313 313 311 310 309 310 309 309 308 309 308 308 308 308 307 308 308 308 308 308 309 309 310 298 297 297 296 306 308 307 307 307 306 306 306 305 305 306 305 306 303 304 304 305 296 295 295 294 294 295 296 298 299 296 295 295 296 295 295 296 296 295
312 312 311 310 309 309 309 309 307 306 306 306 306 306 305 305 306 307 308 308 308 309 310 301 295 295 295 295 299 309 308 307 306 307 306 306 306 306 306 305 305 305 304 300 302 305 301 296 294 294 293 294 294 294 295 296 295 295 295 295 295 296 296
311 310 310 309 309 308 307 306 305 305 305 305 304 300 299 303 305 307 308 307 308 309 310 294 294 293 294 294 294 300 308 307 306 307 306 305 305 305 306 305 304 304 305 303 303 301 302 303 299 295 295 295 295 293 291 291 293 298 297 296 296 295 296
309 308 308 308 308 307 306 303 304 305 303 301 300 299 300 303 305 307 307 308 308 309 309 295 293 293 293 292 293 295 307 306 307 306 305 304 304 305 304 304 303 303 303 304 303 300 301 302 302 304 304 304 303 301 295 293 293 292 295 297 297 296 297
308 308 307 307 306 306 305 304 303 303 302 300 300 301 303 305 306 307 307 308 308 308 307 293 292 292 292 292 292 294 307 305 305 304 304 305 305 306 304 303 302 303 303 303 304 298 301 300 302 303 303 303 303 303 304 302 300 299 299 299 299 298 298
308 308 307 307 306 305 304 303 304 305 304 303 303 303 305 306 307 307 308 308 307 307 304 291 291 291 291 291 291 302 305 303 303 304 304 305 305 305 304 303 303 303 302 303 296 289 294 298 302 302 302 302 303 303 303 301 295 295 299 300 300 299 299
309 308 306 305 305 305 305 305 306 306 305 304 303 303 305 306 306 306 307 307 307 305 302 293 290 291 291 290 295 302 302 301 303 304 304 305 305 304 303 302 303 302 302 303 294 289 291 291 302 302 301 302 302 302 302 303 297 294 292 292 292 292 292
307 306 306 305 305 306 307 307 307 306 304 303 303 303 305 304 304 305 306 306 306 305 303 296 290 291 290 291 296 300 300 302 303 303 305 304 305 303 302 301 301 302 302 303 289 289 289 296 301 301 301 301 301 300 301 301 301 300 296 295 294 293 293
307 306 305 305 305 304 303 304 305 305 304 304 303 303 303 303 303 304 305 306 304 304 303 297 290 291 290 291 296 302 301 302 302 303 303 303 304 303 301 299 299 300 301 298 287 290 289 294 301 301 300 301 299 299 299 299 298 299 300 301 302 303 301
306 304 303 302 301 302 303 303 303 303 302 302 302 302 301 302 302 302 304 305 304 305 303 300 296 290 291 290 291 302 303 302 301 302 303 301 301 302 302 302 300 290 288 289 289 288 289 289 299 301 301 301 299 296 298 297 298 298 299 300 301 302 301
306 304 302 301 301 302 302 301 302 303 301 301 301 300 301 302 302 301 302 304 304 304 303 301 297 289 291 290 291 292 304 303 303 302 302 300 301 301 301 302 304 294 288 290 289 289 289 289 290 300 301 300 299 300 294 297 298 297 301 301 301 300 300
306 304 303 302 301 301 302 302 302 302 300 300 300 300 301 301 301 301 302 302 303 302 300 299 298 291 290 290 291 289 300 304 302 303 301 300 301 301 302 301 304 295 288 290 289 289 289 289 289 299 302 293 290 288 297 297 299 301 300 300 299 298 299
304 303 303 303 302 301 302 302 302 301 300 300 300 300 300 300 300 300 300 300 300 299 300 298 294 296 291 290 290 291 288 295 291 304 302 300 301 302 302 302 303 291 289 289 289 289 289 289 290 301 291 289 289 288 291 299 300 300 299 299 299 298 297
304 303 303 303 303 301 302 302 301 300 300 299 299 298 297 298 298 297 297 297 298 298 299 298 295 293 295 288 290 289 289 287 290 300 303 303 303 301 303 303 300 289 289 289 288 289 290 290 297 291 289 289 288 290 298 301 299 300 298 298 297 297 297
Wind_Speed
10 11 8 7 6 6 6 7 6 5 4 4 4 4 4 4 4 4 4 4 4 5 4 5 5 5 5 5 5 5 4 3 3 3 3 3 4 4 5 6 7 7 7 7 7 5 2 5 6 5 5 4 4 3 3 4 5 4 4 4 5 5 4
9 9 8 7 7 6 7 6 5 5 4 4 2 3 4 4 4 5 5 5 5 5 5 6 6 7 7 6 6 5 5 5 5 4 4 4 3 4 3 4 4 5 5 6 5 6 4 2 4 3 2 4 3 4 2 2 3 3 4 4 4 5 4
8 8 8 8 7 7 7 6 5 4 4 3 3 4 4 5 5 5 5 6 6 6 6 7 7 7 7 7 7 7 7 7 6 6 6 5 5 4 3 2 2 3 3 4 5 4 4 5 4 4 3 2 1 2 1 0 0 2 3 4 4 5 5
12 10 9 8 7 7 7 6 5 4 3 3 4 4 5 5 5 5 5 6 6 6 6 6 6 6 6 7 7 8 8 7 6 7 7 7 6 6 6 5 6 5 5 5 5 5 5 5 3 4 4 3 3 3 3 1 1 1 2 3 4 4 5
12 10 11 10 9 9 8 7 5 4 4 4 5 4 4 5 5 5 6 6 6 6 6 5 5 6 6 6 6 6 6 6 6 6 6 6 6 6 6 6 6 6 6 6 5 5 6 5 4 4 4 4 2 3 3 2 3 0 3 4 5 4 5
15 14 12 11 9 8 7 7 6 5 5 4 4 4 5 6 5 6 6 6 6 6 6 6 6 7 6 7 7 7 7 7 6 6 5 6 6 6 6 6 6 6 6 6 6 6 5 4 6 5 5 3 3 3 3 1 4 2 4 5 6 6 6
12 11 10 10 9 7 7 7 6 5 4 4 4 4 6 6 6 6 6 7 7 7 7 7 7 7 7 7 7 7 7 6 6 7 7 7 7 7 6 6 7 6 6 6 6 6 6 6 6 6 5 3 2 4 3 3 3 4 5 6 6 6 7
10 8 7 8 8 8 7 7 6 5 5 5 5 6 7 7 7 7 8 8 7 7 7 7 7 7 7 7 6 7 6 6 6 7 7 7 7 8 7 6 6 7 6 6 6 6 6 6 6 6 6 6 3 2 4 4 4 6 7 7 7 6 8
8 8 7 7 7 8 8 7 7 6 5 6 6 7 8 8 8 8 8 8 8 8 7 7 7 7 6 6 6 6 6 5 7 8 7 7 8 8 8 7 7 7 6 5 5 5 5 5 5 5 6 6 6 6 5 4 5 5 7 8 7 7 9
10 9 9 10 9 8 7 7 7 6 6 6 7 7 8 8 8 8 8 8 8 7 7 7 7 7 7 6 6 6 6 6 6 7 6 6 7 7 7 7 6 6 5 5 5 5 5 4 4 4 5 6 6 6 7 6 6 7 8 10 9 9 11
10 9 9 11 9 8 7 7 7 7 7 7 7 7 8 9 8 9 8 8 8 7 7 7 7 7 7 6 6 6 6 6 6 6 6 6 6 5 6 6 5 6 5 5 5 5 4 4 4 5 4 4 5 6 6 7 7 5 8 8 8 10 11
9 10 9 9 9 9 9 8 8 7 8 8 8 8 9 9 9 9 9 8 8 8 7 7 7 6 6 6 6 6 6 6 6 7 6 5 5 5 6 6 5 5 4 4 4 4 4 4 4 4 4 3 3 4 5 5 7 5 7 9 9 10 11
10 10 10 10 9 10 10 9 9 9 9 8 8 9 9 9 9 9 8 8 8 8 8 7 6 7 6 6 6 6 6 7 7 7 6 5 4 5 5 5 4 4 3 4 5 4 4 4 3 3 4 4 3 3 4 5 7 9 8 9 10 10 11
11 10 11 11 10 10 9 9 9 9 9 9 9 9 9 10 10 9 9 9 9 8 8 7 6 6 6 6 6 7 7 7 7 6 6 6 6 6 6 6 6 5 4 4 4 4 4 4 3 3 3 3 3 3 4 5 7 9 8 8 9 9 10
10 10 11 11 10 11 10 9 9 9 10 10 10 10 10 9 9 10 9 9 9 9 8 8 7 6 7 7 7 5 6 7 6 6 6 6 6 4 5 6 6 5 4 5 5 5 5 4 4 4 4 4 4 4 4 6 7 8 11 10 9 10 10
10 12 12 10 10 10 10 10 9 10 9 9 9 9 9 9 10 10 9 9 9 9 8 8 6 7 7 8 8 7 6 6 6 6 6 6 6 6 5 5 5 4 3 4 4 4 4 4 4 4 4 4 4 5 6 6 7 9 11 10 10 11 10
11 11 11 9 11 11 10 10 9 9 10 9 9 8 9 10 9 9 9 9 9 9 8 7 7 7 8 8 7 8 7 6 6 5 5 6 6 5 5 5 4 3 3 4 4 4 5 5 4 4 5 5 5 6 6 7 7 8 9 11 11 11 10
11 12 11 10 12 11 11 9 8 10 9 9 9 9 9 9 9 9 9 10 10 9 9 8 8 8 7 7 7 7 7 6 6 5 5 5 5 5 4 4 4 4 4 4 4 4 5 6 5 4 5 6 6 6 7 7 8 8 9 11 11 10 10
12 12 11 11 12 12 10 9 10 9 10 10 10 9 9 9 9 10 10 10 10 9 9 8 8 8 8 7 7 6 6 6 6 6 5 5 5 4 4 4 3 3 4 4 4 5 5 6 5 5 6 6 7 7 8 8 8 9 9 10 11 11 10
12 12 11 11 11 11 10 10 10 10 9 10 10 9 9 9 9 9 10 9 9 9 9 8 8 7 8 7 7 7 6 6 5 4 4 4 4 4 4 4 3 3 4 4 5 5 6 7 5 6 6 7 8 8 8 8 9 9 9 10 10 10 11
12 12 11 11 11 11 10 9 10 9 9 9 8 9 9 9 8 8 9 9 9 8 8 8 8 8 7 7 6 7 6 6 5 4 4 4 3 3 3 3 3 4 5 5 5 5 6 7 6 6 6 7 8 8 8 8 9 9 10 10 10 11 11
11 12 13 12 12 10 10 9 9 8 8 7 5 6 8 9 9 8 9 8 9 8 8 7 7 7 7 7 7 6 6 5 5 5 4 4 3 3 3 3 3 4 4 3 2 3 3 3 6 7 7 8 8 8 8 8 8 9 10 10 10 10 11
12 12 12 12 12 10 9 9 9 9 8 8 7 7 7 6 8 8 9 8 8 7 7 6 6 4 1 5 7 5 5 5 5 4 4 4 3 3 2 2 4 4 2 3 5 5 5 3 4 4 6 7 7 7 7 8 8 9 10 11 11 11 12
12 13 12 12 12 11 9 9 10 10 7 5 5 4 5 5 6 7 8 9 8 7 6 5 10 5 2 7 2 6 5 5 4 4 4 4 3 4 3 2 2 6 8 8 8 9 6 8 7 6 7 7 6 5 7 7 8 9 9 10 11 11 11
12 12 12 12 11 10 10 9 9 9 9 8 6 5 5 2 5 7 7 8 8 7 6 9 10 7 2 2 6 2 5 4 4 4 4 4 3 3 3 2 1 1 1 5 5 2 7 10 8 8 9 10 9 8 7 4 7 8 9 10 11 11 12
13 12 12 12 12 12 12 11 12 11 10 8 6 6 7 8 7 7 7 9 9 9 6 9 10 8 7 6 6 7 5 5 6 5 3 3 1 2 2 2 1 1 1 4 5 4 6 3 7 12 11 13 12 10 7 8 9 6 8 10 10 12 12
12 12 12 12 12 12 11 10 9 9 9 8 7 8 8 9 9 9 8 8 8 8 6 9 9 9 8 8 8 8 5 6 4 4 4 3 3 3 2 2 1 1 2 2 3 6 7 6 7 6 5 5 6 4 3 6 2 5 7 8 10 11 12
13 12 12 12 12 11 11 9 9 8 8 8 9 9 10 11 9 9 9 8 8 7 6 9 9 9 8 7 6 7 4 3 3 3 4 4 4 3 2 1 1 1 1 2 3 5 6 8 8 6 6 7 7 6 5 5 7 8 9 8 9 11 12
13 12 12 12 12 12 11 11 10 9 9 8 8 9 9 9 10 10 9 9 8 7 6 8 7 8 6 6 5 6 3 3 5 5 5 5 5 4 3 2 2 1 2 1 5 1 4 7 8 7 7 8 7 7 6 3 3 6 7 9 10 11 11
15 14 13 13 12 12 12 12 10 9 9 9 9 9 9 9 9 9 10 9 9 7 7 5 5 6 6 7 5 5 4 6 6 6 5 6 5 4 3 2 1 1 2 2 5 4 5 8 8 8 8 8 7 7 7 7 5 7 10 12 14 15 17
14 14 14 15 14 13 12 10 10 9 10 10 10 9 8 8 8 9 10 10 9 8 8 8 8 7 7 8 8 7 6 6 6 6 6 5 4 4 3 4 5 3 3 3 5 4 6 8 7 8 9 9 9 9 8 9 10 11 13 11 12 13 14
13 14 13 13 12 12 10 9 8 8 8 8 8 8 8 8 8 8 9 9 8 8 8 8 7 7 7 9 8 7 6 6 6 6 6 6 5 4 5 5 6 5 4 4 3 4 5 7 7 7 8 8 8 9 10 11 12 13 13 13 12 12 12
9 9 10 9 10 10 9 8 8 8 7 7 7 7 7 7 8 7 8 8 8 7 8 8 7 7 7 8 11 8 6 5 6 6 6 6 5 5 5 5 7 6 4 4 5 4 6 5 6 7 7 7 8 10 11 12 13 12 13 12 12 11 11
9 9 8 9 9 9 8 8 8 9 8 7 8 8 9 8 8 8 7 7 8 7 6 7 8 8 7 8 10 10 6 6 6 6 6 5 5 5 5 5 5 8 6 4 5 5 6 7 6 6 6 7 8 8 9 11 13 13 11 11 11 10 10
8 8 9 9 10 9 8 9 9 9 7 8 9 9 9 7 8 7 7 7 7 7 7 7 7 8 8 8 9 10 6 6 2 6 5 5 4 4 4 3 4 7 6 3 5 6 6 7 7 6 5 5 8 9 8 10 10 9 9 10 10 10 10
10 9 10 11 12 11 10 10 9 9 9 9 9 9 9 7 7 7 7 7 7 7 7 7 9 9 9 8 7 7 5 7 4 4 4 4 4 4 3 2 4 7 3 4 6 7 8 8 9 6 3 7 9 11 10 8 8 9 9 9 10 10 10
11 10 11 11 11 11 11 10 10 9 9 9 9 9 8 8 8 8 8 7 7 7 7 7 8 8 9 8 7 5 3 4 6 3 3 3 4 2 3 1 4 6 5 7 8 9 10 8 7 9 9 10 11 11 9 8 7 9 9 9 10 10 11
Wind_Direction
167 156 139 124 120 131 128 126 121 116 109 96 89 79 93 94 93 94 88 78 78 75 73 72 67 63 74 71 62 60 60 52 39 82 94 70 77 75 42 49 52 47 46 46 17 337 18 145 147 130 107 80 80 60 46 33 39 31 28 2 4 4 8
151 140 126 128 131 133 128 128 129 121 110 90 61 90 98 97 99 90 88 85 79 82 81 79 76 73 68 70 67 63 60 62 59 58 88 96 104 102 107 83 68 63 65 53 33 22 13 121 102 96 142 146 139 72 48 41 30 21 12 9 353 349 1
140 127 132 137 139 142 137 137 133 134 126 109 97 91 101 99 97 104 97 91 86 80 80 85 87 82 76 73 68 68 68 72 65 66 72 81 75 61 45 70 102 105 85 69 50 48 58 40 61 64 57 78 139 99 86 64 351 357 333 5 339 359 356
140 139 140 141 145 151 149 147 141 134 125 108 111 108 101 103 100 92 97 97 93 93 96 98 91 89 88 83 80 76 71 73 76 76 74 69 73 68 64 64 67 57 54 54 45 46 39 40 50 52 47 39 32 98 114 92 326 236 319 339 338 360 344
146 155 153 152 161 161 153 146 141 145 133 122 121 116 120 115 110 103 100 102 98 97 95 94 95 95 93 89 85 83 81 77 77 77 77 80 80 83 75 73 70 65 58 54 53 40 36 33 20 32 34 9 47 41 69 176 182 28 5 2 350 1 350
161 164 168 159 163 160 155 144 149 147 137 135 126 123 124 132 118 119 114 105 104 98 97 95 93 91 91 91 89 86 79 76 70 72 77 69 71 79 81 73 71 67 63 58 47 44 41 33 25 24 22 24 0 16 30 73 29 133 17 6 354 4 349
165 160 156 159 166 158 145 144 153 148 138 129 135 139 141 137 126 114 111 106 106 109 105 100 98 96 97 98 96 92 88 85 86 86 84 82 78 76 76 77 69 68 65 56 54 48 41 36 35 22 359 12 340 12 15 21 64 8 15 6 357 356 349
152 147 145 155 153 141 139 145 141 136 126 131 133 131 144 132 124 123 120 120 117 114 113 109 105 102 98 100 97 93 93 95 91 87 83 82 79 78 77 77 79 73 68 61 53 53 52 43 37 22 10 3 16 54 10 21 12 39 6 353 354 353 351
142 139 138 138 135 133 138 139 133 129 126 127 130 137 140 135 134 129 130 124 125 123 120 118 115 109 108 105 105 108 105 103 99 96 96 90 86 84 83 82 80 76 71 67 64 62 53 51 45 31 20 17 2 1 3 11 11 6 14 356 346 353 349
145 146 145 140 132 132 134 133 136 131 128 133 133 141 142 137 138 135 127 128 129 126 121 118 116 118 120 116 116 119 111 105 98 91 88 90 89 85 83 83 86 89 82 75 71 65 60 52 49 41 31 27 3 358 354 347 14 346 356 355 341 342 344
151 139 139 140 135 134 132 134 136 141 137 135 141 141 142 140 137 136 135 134 132 131 128 126 125 125 126 122 123 117 111 111 107 101 93 89 85 86 88 89 88 86 77 78 74 63 58 52 49 42 34 32 19 9 353 337 337 352 338 337 335 331 331
141 137 135 133 137 141 140 146 147 137 133 141 146 146 148 146 146 144 141 138 137 135 133 128 132 136 133 129 130 121 123 116 106 103 98 96 97 97 101 101 99 94 93 84 82 75 58 42 38 42 35 20 26 1 344 331 319 340 336 322 323 322 321
148 145 141 139 148 147 149 149 142 139 142 148 150 153 153 151 150 147 145 142 142 141 140 140 141 138 143 139 139 128 120 120 111 107 107 102 103 107 109 103 92 92 98 91 76 63 60 50 30 27 27 13 17 0 325 319 310 310 325 317 317 314 320
144 136 140 147 149 150 152 149 145 140 147 153 153 157 155 153 153 150 148 150 148 147 145 147 147 149 148 145 133 129 128 120 115 110 112 112 110 107 101 99 94 85 72 66 63 58 46 35 32 29 15 2 1 359 339 322 313 312 312 319 314 320 318
139 139 144 155 154 154 154 148 142 146 152 154 160 155 155 154 153 156 153 153 152 150 153 150 155 154 149 143 135 135 135 128 119 116 114 111 109 106 106 97 94 84 69 64 51 45 32 23 19 18 6 2 350 344 340 323 318 310 314 319 320 319 319
138 146 151 155 157 155 149 143 147 149 156 156 159 156 153 156 159 156 156 155 155 156 156 152 153 152 147 147 143 142 139 131 128 130 128 122 116 115 113 108 99 91 74 66 61 50 32 17 8 20 359 353 343 340 331 325 316 315 315 316 320 321 326
147 150 153 157 160 154 146 147 149 154 155 157 156 156 156 160 158 159 158 159 158 160 156 153 152 150 152 149 147 145 141 139 138 131 125 121 118 114 108 106 96 87 75 64 46 43 33 13 9 10 358 353 343 343 329 320 318 314 315 314 321 322 324
154 157 158 157 154 148 145 147 153 156 156 160 155 156 159 159 162 165 164 165 162 162 159 157 150 150 149 154 148 145 148 142 140 128 114 108 110 109 107 95 91 78 60 55 46 34 24 13 7 5 359 351 345 342 331 325 322 321 318 316 317 319 318
159 161 158 154 150 146 147 151 153 157 163 162 160 160 160 163 170 168 169 168 165 163 161 157 156 153 153 154 151 150 144 147 143 137 131 127 116 111 100 94 84 72 57 44 40 29 16 9 7 358 0 350 345 338 331 328 327 326 322 319 320 319 325
160 159 153 149 148 148 153 155 157 162 165 163 163 164 164 168 171 172 170 168 167 165 160 161 157 157 156 157 154 151 153 149 148 142 146 127 122 109 98 91 87 70 53 38 33 28 16 8 4 356 1 349 344 338 332 334 331 329 329 327 323 322 324
158 153 150 149 150 151 154 159 158 156 161 163 167 169 171 169 170 173 168 170 166 164 163 165 162 162 162 159 160 158 158 160 150 153 154 150 138 128 107 95 81 62 45 34 20 27 20 11 359 0 1 350 345 339 335 334 335 333 334 333 328 331 329
155 151 151 149 146 147 154 151 145 148 152 152 156 178 177 174 168 171 164 171 166 165 171 170 166 170 164 165 164 167 165 167 163 161 168 162 166 153 143 101 66 57 45 31 24 353 7 332 351 1 358 353 346 341 336 339 338 338 336 330 331 333 327
152 151 151 148 143 142 151 144 142 141 144 150 168 183 177 182 176 169 170 167 170 171 175 182 129 127 18 164 168 167 169 168 179 173 178 169 176 187 162 148 112 110 210 220 200 193 203 224 270 312 345 351 352 345 342 340 341 343 334 331 335 332 331
151 154 152 147 144 147 149 149 147 136 126 136 142 148 166 179 193 180 176 175 172 178 180 146 115 140 102 345 256 168 177 173 181 179 181 190 183 180 193 181 161 180 208 213 200 200 204 206 215 250 257 267 282 319 348 342 344 337 335 330 328 331 331
156 154 151 148 142 141 148 150 134 129 132 135 140 127 107 160 217 199 182 177 178 180 185 118 150 148 174 225 289 225 179 176 188 189 198 194 189 182 177 180 189 243 30 2 325 231 207 201 214 229 242 254 259 238 235 313 335 335 334 327 324 328 329
156 153 150 139 145 161 161 155 150 150 144 135 121 113 149 177 212 199 189 182 182 184 167 136 154 167 169 205 228 260 183 190 190 193 188 204 211 182 178 178 170 278 118 208 253 346 334 326 207 217 234 243 234 218 213 218 229 280 322 317 321 322 330
153 152 148 149 156 154 158 153 145 141 133 133 140 156 179 190 196 192 188 183 182 182 162 147 162 167 177 188 213 239 227 178 199 184 181 184 186 190 188 211 205 206 17 327 17 337 339 326 333 328 326 342 348 346 200 193 319 289 296 319 322 318 320
155 155 156 157 160 158 155 140 141 140 143 152 161 171 184 187 187 187 184 185 182 180 143 149 163 170 177 187 204 238 247 163 196 188 189 188 198 169 163 174 251 301 348 343 47 359 319 334 326 331 332 340 346 346 343 348 346 339 332 324 318 314 310
155 156 155 157 160 160 155 154 152 153 156 163 174 183 181 184 180 180 180 179 179 169 134 152 160 164 167 176 193 221 206 185 216 198 190 182 183 172 175 196 234 264 332 54 89 357 310 311 318 333 337 340 343 342 346 68 199 257 283 302 308 309 304
159 157 155 157 160 162 162 161 162 163 166 169 176 179 175 175 174 177 176 179 177 168 148 148 149 154 162 181 201 213 207 211 200 194 182 172 178 159 180 211 250 310 301 54 73 348 322 302 314 335 338 339 337 338 339 347 327 276 248 253 266 270 274
154 155 158 165 167 167 166 163 162 168 172 172 174 174 168 168 173 177 180 179 179 165 157 141 162 166 178 186 217 213 205 210 185 183 172 177 175 167 120 42 311 280 303 63 55 339 320 299 320 338 337 336 334 338 340 343 330 326 317 299 286 278 277
160 160 164 163 158 154 156 157 159 166 172 169 166 163 166 164 169 173 177 180 158 168 152 149 170 177 189 195 222 225 217 193 184 180 175 173 178 180 156 191 224 294 334 24 16 297 302 293 320 339 337 329 335 334 342 332 324 320 320 320 318 318 314
148 146 139 132 137 145 151 152 158 164 162 169 162 155 169 166 167 170 170 168 158 174 155 162 169 186 197 208 233 255 214 195 186 176 186 169 178 181 183 184 173 199 237 250 261 263 264 272 292 329 330 335 337 333 332 321 312 312 309 310 314 315 315
136 142 135 140 140 137 145 150 155 161 160 163 154 160 169 169 167 167 173 175 167 163 164 165 162 181 199 215 232 253 226 198 182 180 180 180 184 179 187 199 165 156 202 227 253 248 249 245 268 291 321 338 331 321 310 301 306 296 303 312 314 318 325
123 126 135 140 140 150 157 152 156 160 153 150 161 164 163 161 166 166 170 175 169 168 157 173 161 179 203 207 232 255 281 189 183 180 182 177 193 174 186 184 138 142 173 225 264 272 264 248 235 262 314 322 300 298 289 295 292 306 318 321 324 325 330
149 150 154 157 157 161 162 159 158 160 156 160 162 160 158 157 168 169 169 173 167 173 165 173 170 177 190 212 219 250 295 309 44 293 182 179 191 171 176 199 111 86 360 305 290 279 275 268 254 243 287 284 284 284 281 279 305 317 325 324 325 331 330
155 156 155 160 163 159 163 162 162 164 165 168 163 158 156 170 179 174 174 170 170 172 170 176 172 191 175 202 204 246 254 338 337 308 307 200 187 187 188 170 40 5 322 299 285 277 269 258 266 300 282 276 277 281 275 306 334 332 326 332 335 335 334